Saguache, CO

8:06 PM MDT on May 26, 2018 (GMT -0600)
Saguache

Weather History for K04V - February, 2014

Change the Weather History Date:

Friday, February 28, 2014

  Actual Average (WUND) Record (WUND)
Temperature  
Mean Temperature 37 °F -  
Max Temperature 48 °F - - (-1)
Min Temperature 26 °F - - (-1)
Degree Days  
Heating Degree Days 28    
Moisture  
Dew Point 21 °F    
Average Humidity 57    
Maximum Humidity 86    
Minimum Humidity 29    
Precipitation  
Precipitation 0.00 in - - ()
Sea Level Pressure  
Sea Level Pressure 29.88 in    
Wind  
Wind Speed 13 mph (NW)    
Max Wind Speed 33 mph    
Max Gust Speed 41 mph    
Visibility 10 miles    
Events      
Averages and records for this station are not official NWS values.
T = Trace of Precipitation, MM = Missing Value Source: NWS Daily Summary

Daily Weather History Graph

Daily Weather History Graph

Search for Another Location

Airport or City:

Astronomy

Feb. 28, 2014 Rise Set
Actual Time 6:37 AM MST 5:57 PM MST
Civil Twilight 6:11 AM MST 6:23 PM MST
Nautical Twilight 5:40 AM MST 6:54 PM MST
Astronomical Twilight 5:10 AM MST 7:24 PM MST
Moon 5:54 AM MST (2/28) 5:37 PM MST (2/28)
Length of Visible Light 12h 12m
Length of Day
11h 19m
Waning Crescent, 0% of the Moon is Illuminated
Feb 28
Waning Crescent
Mar 1
New
Mar 8
First Quarter
Mar 16
Full
Mar 23
Last Quarter

Hourly Weather History & Observations

Time (MST) Temp. Windchill Dew Point Humidity Pressure Visibility Wind Dir Wind Speed Gust Speed Precip Events Conditions
12:12 AM 32.0 °F 24.8 °F 26.6 °F 80% 29.74 in 10.0 mi WNW 8.1 mph - N/A   Mostly Cloudy
12:32 AM 32.0 °F 28.7 °F 24.8 °F 75% 29.75 in 10.0 mi NNW 3.5 mph - N/A   Scattered Clouds
12:52 AM 32.0 °F 25.6 °F 23.0 °F 69% 29.76 in 10.0 mi NW 6.9 mph - N/A   Clear
1:12 AM 33.8 °F 23.9 °F 23.0 °F 65% 29.76 in 10.0 mi NW 15.0 mph 26.5 mph N/A   Clear
1:32 AM 33.8 °F 28.6 °F 23.0 °F 65% 29.76 in 10.0 mi WNW 5.8 mph 20.7 mph N/A   Mostly Cloudy
1:52 AM 33.8 °F 25.3 °F 23.0 °F 65% 29.78 in 10.0 mi NW 11.5 mph 25.3 mph N/A   Mostly Cloudy
2:12 AM 33.8 °F 24.3 °F 24.8 °F 70% 29.77 in 10.0 mi West 13.8 mph 19.6 mph N/A   Overcast
2:31 AM 32.0 °F - 23.0 °F 69% 29.76 in 10.0 mi Calm Calm - N/A   Scattered Clouds
2:51 AM 32.0 °F 20.5 °F 23.0 °F 69% 29.75 in 10.0 mi NW 18.4 mph 26.5 mph N/A   Clear
3:12 AM 33.8 °F 20.8 °F 21.2 °F 60% 29.75 in 10.0 mi NW 26.5 mph 33.4 mph N/A   Clear
3:32 AM 32.0 °F 17.9 °F 21.2 °F 64% 29.74 in 10.0 mi NNW 28.8 mph 36.8 mph N/A   Clear
3:52 AM 32.0 °F 17.6 °F 21.2 °F 64% 29.75 in 10.0 mi NW 29.9 mph 35.7 mph N/A   Clear
4:12 AM 32.0 °F 17.0 °F 21.2 °F 64% 29.75 in 10.0 mi NW 33.4 mph 41.4 mph N/A   Clear
4:32 AM 32.0 °F 19.2 °F 21.2 °F 64% 29.76 in 10.0 mi NW 23.0 mph 34.5 mph N/A   Clear
4:52 AM 32.0 °F 17.9 °F 21.2 °F 64% 29.77 in 10.0 mi NW 28.8 mph 35.7 mph N/A   Clear
5:12 AM 32.0 °F 17.4 °F 21.2 °F 64% 29.78 in 10.0 mi NW 31.1 mph 39.1 mph N/A   Clear
5:32 AM 32.0 °F 19.8 °F 21.2 °F 64% 29.81 in 10.0 mi NW 20.7 mph 34.5 mph N/A   Clear
5:52 AM 30.2 °F 17.8 °F 21.2 °F 69% 29.83 in 10.0 mi NW 19.6 mph - N/A   Clear
6:12 AM 32.0 °F 20.5 °F 21.2 °F 64% 29.85 in 10.0 mi NW 18.4 mph - N/A   Clear
6:32 AM 32.0 °F 20.5 °F 21.2 °F 64% 29.86 in 10.0 mi NW 18.4 mph - N/A   Clear
6:52 AM 30.2 °F 17.8 °F 21.2 °F 69% 29.86 in 10.0 mi NW 19.6 mph - N/A   Clear
7:12 AM 30.2 °F 18.9 °F 21.2 °F 69% 29.87 in 10.0 mi NW 16.1 mph - N/A   Clear
7:32 AM 32.0 °F 19.8 °F 21.2 °F 64% 29.88 in 10.0 mi NNW 20.7 mph 29.9 mph N/A   Clear
7:51 AM 35.6 °F 24.5 °F 21.2 °F 56% 29.89 in 10.0 mi NW 20.7 mph 27.6 mph N/A   Clear
8:12 AM 35.6 °F 24.8 °F 21.2 °F 56% 29.90 in 10.0 mi NW 19.6 mph 25.3 mph N/A   Clear
8:31 AM 37.4 °F 26.6 °F 21.2 °F 52% 29.90 in 10.0 mi NW 21.9 mph 28.8 mph N/A   Clear
8:52 AM 37.4 °F 26.6 °F 23.0 °F 56% 29.90 in 10.0 mi NW 21.9 mph 32.2 mph N/A   Clear
9:11 AM 37.4 °F 26.4 °F 21.2 °F 52% 29.91 in 10.0 mi NNW 23.0 mph 31.1 mph N/A   Clear
9:32 AM 39.2 °F 29.6 °F 21.2 °F 49% 29.92 in 10.0 mi NW 19.6 mph 26.5 mph N/A   Clear
9:51 AM 39.2 °F 30.5 °F 21.2 °F 49% 29.93 in 10.0 mi NW 16.1 mph 25.3 mph N/A   Clear
10:12 AM 41.0 °F 31.4 °F 19.4 °F 42% 29.94 in 10.0 mi NW 21.9 mph 27.6 mph N/A   Clear
10:32 AM 41.0 °F 31.4 °F 17.6 °F 39% 29.94 in 10.0 mi WNW 21.9 mph 29.9 mph N/A   Clear
10:52 AM 42.8 °F 35.4 °F 17.6 °F 36% 29.94 in 10.0 mi NW 15.0 mph 23.0 mph N/A   Clear
11:11 AM 42.8 °F 35.1 °F 15.8 °F 34% 29.94 in 10.0 mi NW 16.1 mph 20.7 mph N/A   Clear
11:32 AM 42.8 °F 36.2 °F 15.8 °F 34% 29.94 in 10.0 mi NW 12.7 mph - N/A   Clear
11:51 AM 44.6 °F 37.8 °F 14.0 °F 29% 29.93 in 10.0 mi WNW 15.0 mph 20.7 mph N/A   Clear
12:11 PM 44.6 °F 39.2 °F 15.8 °F 31% 29.92 in 10.0 mi NW 10.4 mph 19.6 mph N/A   Clear
12:32 PM 44.6 °F 39.2 °F 15.8 °F 31% 29.91 in 10.0 mi WNW 10.4 mph - N/A   Clear
12:52 PM 44.6 °F 40.7 °F 15.8 °F 31% 29.91 in 10.0 mi SSW 6.9 mph - N/A   Clear
1:12 PM 44.6 °F 42.2 °F 19.4 °F 37% 29.90 in 10.0 mi SSW 4.6 mph - N/A   Scattered Clouds
1:32 PM 44.6 °F 42.2 °F 17.6 °F 34% 29.90 in 10.0 mi NNW 4.6 mph - N/A   Scattered Clouds
1:52 PM 44.6 °F 41.4 °F 17.6 °F 34% 29.90 in 10.0 mi WSW 5.8 mph - N/A   Mostly Cloudy
2:12 PM 44.6 °F 42.2 °F 19.4 °F 37% 29.89 in 10.0 mi SSW 4.6 mph - N/A   Overcast
2:31 PM 44.6 °F 42.2 °F 19.4 °F 37% 29.90 in 10.0 mi WSW 4.6 mph - N/A   Overcast
2:51 PM 44.6 °F 37.8 °F 17.6 °F 34% 29.89 in 10.0 mi NW 15.0 mph 24.2 mph N/A   Overcast
3:12 PM 48.2 °F - 17.6 °F 30% 29.89 in 10.0 mi NNW 17.3 mph 24.2 mph N/A   Mostly Cloudy
3:32 PM 46.4 °F 40.1 °F 19.4 °F 34% 29.90 in 10.0 mi NNW 15.0 mph 25.3 mph N/A   Scattered Clouds
3:52 PM 44.6 °F 36.1 °F 19.4 °F 37% 29.90 in 10.0 mi NW 21.9 mph 28.8 mph N/A   Clear
4:12 PM 44.6 °F 37.2 °F 21.2 °F 39% 29.90 in 10.0 mi NW 17.3 mph - N/A   Scattered Clouds
4:32 PM 42.8 °F 36.2 °F 21.2 °F 42% 29.90 in 10.0 mi NW 12.7 mph 17.3 mph N/A   Clear
4:52 PM 42.8 °F 34.5 °F 21.2 °F 42% 29.91 in 10.0 mi NW 18.4 mph 24.2 mph N/A   Mostly Cloudy
5:12 PM 41.0 °F 34.7 °F 21.2 °F 45% 29.91 in 10.0 mi NW 10.4 mph 17.3 mph N/A   Scattered Clouds
5:32 PM 39.2 °F 31.2 °F 21.2 °F 49% 29.91 in 10.0 mi NW 13.8 mph - N/A   Clear
5:52 PM 37.4 °F 29.3 °F 21.2 °F 52% 29.90 in 10.0 mi NW 12.7 mph 19.6 mph N/A   Scattered Clouds
6:12 PM 35.6 °F 29.9 °F 21.2 °F 56% 29.91 in 10.0 mi NW 6.9 mph - N/A   Clear
6:32 PM 33.8 °F 27.7 °F 21.2 °F 60% 29.93 in 10.0 mi NW 6.9 mph - N/A   Clear
6:52 PM 32.0 °F 26.4 °F 23.0 °F 69% 29.93 in 10.0 mi NNW 5.8 mph - N/A   Clear
7:12 PM 33.8 °F 27.0 °F 23.0 °F 65% 29.93 in 10.0 mi NNW 8.1 mph - N/A   Clear
7:32 PM 32.0 °F 28.7 °F 23.0 °F 69% 29.93 in 10.0 mi NW 3.5 mph - N/A   Clear
7:52 PM 32.0 °F 25.6 °F 23.0 °F 69% 29.93 in 10.0 mi NW 6.9 mph - N/A   Clear
8:12 PM 32.0 °F 24.8 °F 23.0 °F 69% 29.93 in 10.0 mi NW 8.1 mph - N/A   Clear
8:32 PM 32.0 °F 25.6 °F 23.0 °F 69% 29.93 in 10.0 mi North 6.9 mph - N/A   Clear
8:52 PM 30.2 °F 24.3 °F 23.0 °F 75% 29.93 in 10.0 mi NW 5.8 mph - N/A   Clear
9:12 PM 28.4 °F 21.2 °F 23.0 °F 80% 29.95 in 10.0 mi WNW 6.9 mph - N/A   Clear
9:32 PM 28.4 °F 21.2 °F 23.0 °F 80% 29.94 in 10.0 mi WNW 6.9 mph - N/A   Clear
9:51 PM 28.4 °F 22.2 °F 23.0 °F 80% 29.94 in 10.0 mi North 5.8 mph - N/A   Clear
10:11 PM 30.2 °F 24.3 °F 23.0 °F 75% 29.94 in 10.0 mi North 5.8 mph - N/A   Clear
10:31 PM 28.4 °F 24.6 °F 23.0 °F 80% 29.93 in 10.0 mi North 3.5 mph - N/A   Clear
10:52 PM 26.6 °F - 23.0 °F 86% 29.93 in 10.0 mi Calm Calm - N/A   Clear
11:11 PM 26.6 °F 20.0 °F 23.0 °F 86% 29.92 in 10.0 mi NE 5.8 mph - N/A   Clear
11:32 PM 26.6 °F 22.6 °F 23.0 °F 86% 29.93 in 10.0 mi WNW 3.5 mph - N/A   Clear
11:52 PM 26.6 °F 20.0 °F 23.0 °F 86% 29.92 in 10.0 mi NNW 5.8 mph - N/A   Clear